Date,TemperatureHighF,TemperatureAvgF,TemperatureLowF,DewpointHighF,DewpointAvgF,DewpointLowF,HumidityHigh,HumidityAvg,HumidityLow,PressureMaxIn,PressureMinIn,WindSpeedMaxMPH,WindSpeedAvgMPH,GustSpeedMaxMPH,PrecipitationSumIn
2014-1-1,46.7,33.3,22.9,33.4,25.6,20.3,91,75,48,30.38,30.11,24,4,24,0.00
2014-1-2,41.6,32.0,17.9,39.4,28.9,14.4,93,88,79,30.12,29.68,42,7,43,0.01
2014-1-3,24.7,17.2,11.3,14.6,11.1,6.6,90,77,61,30.44,29.96,37,10,37,0.00
2014-1-4,45.2,30.2,16.1,38.6,21.5,9.9,91,71,41,30.45,30.19,31,9,31,0.01
2014-1-5,53.8,44.7,38.8,48.7,41.7,36.6,98,89,80,30.19,29.60,40,10,40,0.00
2014-1-6,48.3,18.6,0.6,45.8,15.8,-3.6,92,88,81,30.30,29.58,40,16,40,0.09
2014-1-7,16.8,6.1,-2.7,4.3,-1.5,-7.1,84,72,45,30.61,30.30,31,8,31,0.00
2014-1-8,40.4,21.5,5.1,21.7,12.4,1.9,89,70,44,30.66,30.52,11,1,11,0.01
2014-1-9,48.1,34.3,22.0,36.3,25.6,18.8,90,72,40,30.53,30.38,28,5,28,0.00
2014-1-10,49.4,42.5,36.0,47.3,40.5,33.8,94,93,82,30.41,30.04,18,3,18,0.08
2014-1-11,60.7,50.5,41.0,53.4,46.1,34.7,94,86,61,29.97,29.53,27,7,28,0.85
2014-1-12,53.0,42.4,35.7,36.4,31.5,26.9,85,67,38,30.12,29.79,24,6,25,0.00
2014-1-13,52.7,39.2,28.2,39.9,32.9,25.5,92,79,53,30.10,29.88,36,7,40,0.00
2014-1-14,49.3,43.0,32.9,42.7,36.5,28.8,93,79,55,29.94,29.75,20,6,32,0.03
2014-1-15,38.2,31.6,24.5,31.7,27.1,18.8,92,84,61,30.01,29.89,23,7,23,0.01
2014-1-16,40.7,28.8,19.4,20.3,17.6,15.4,88,65,40,30.06,29.91,23,4,23,0.00
2014-1-17,48.9,33.3,22.9,28.5,21.8,11.7,89,65,23,29.97,29.77,35,7,37,0.00
2014-1-18,35.0,24.9,16.9,19.9,16.1,12.6,89,70,47,30.10,29.94,18,6,23,0.00
2014-1-19,43.4,35.0,28.3,31.1,24.7,18.1,85,66,54,30.02,29.91,21,4,21,0.00
2014-1-20,58.9,41.8,24.2,32.1,26.0,18.2,88,57,31,29.97,29.81,16,4,18,0.00
2014-1-21,43.9,30.3,14.1,33.4,25.2,10.7,91,82,60,29.93,29.62,36,9,36,0.01
2014-1-22,24.9,16.1,7.8,10.7,6.3,0.0,87,67,40,30.15,29.93,24,8,24,0.00
2014-1-23,26.7,19.1,7.4,16.3,8.4,-3.7,72,63,53,30.51,30.15,29,12,29,0.00
2014-1-24,24.4,12.6,0.9,2.1,-1.2,-4.4,80,56,33,30.63,30.23,20,3,20,0.00
2014-1-25,35.4,23.2,9.6,25.8,14.3,1.3,91,69,46,30.23,29.77,37,6,37,0.00
2014-1-26,52.1,37.3,23.8,28.8,20.7,12.7,69,53,27,29.95,29.80,32,5,32,0.01
2014-1-27,49.2,35.2,20.6,38.5,24.6,3.6,77,66,43,30.14,29.80,32,9,32,0.00
2014-1-28,20.6,17.5,14.5,18.4,9.7,3.3,96,72,50,30.25,30.13,22,-17,22,0.00
2014-1-29,24.6,14.8,6.9,11.2,5.0,0.0,87,67,41,30.40,30.22,22,8,22,0.00
2014-1-30,40.6,21.0,1.4,15.4,7.4,-2.2,88,59,31,30.41,30.19,27,5,28,0.01
2014-1-31,49.2,32.4,17.1,20.8,16.3,11.9,85,55,26,30.25,30.14,15,2,15,0.00
2014-2-1,63.7,42.2,24.7,36.3,26.9,19.1,83,59,22,30.22,30.03,32,6,32,0.00
2014-2-2,56.2,44.6,29.5,51.4,39.0,26.8,91,81,62,30.09,29.90,31,3,31,0.03
2014-2-3,56.2,43.4,36.2,54.1,41.0,34.1,93,91,85,30.16,29.75,37,9,37,1.02
2014-2-4,46.7,39.8,35.1,40.8,36.8,33.3,94,89,79,30.28,29.97,33,7,33,0.04
2014-2-5,50.8,40.8,26.3,47.9,37.8,23.8,98,89,75,30.18,29.77,39,13,39,0.03
2014-2-6,31.5,26.9,23.7,25.3,22.6,20.4,90,84,75,30.33,30.18,23,8,23,0.00
2014-2-7,40.2,30.8,24.0,28.1,24.5,21.8,92,78,57,30.37,30.24,15,4,19,0.00
2014-2-8,46.4,35.8,30.6,35.0,29.5,24.3,92,78,58,30.26,30.11,17,2,18,0.00
2014-2-9,48.4,37.9,28.1,38.5,33.5,26.1,93,85,68,30.15,29.98,25,5,26,0.00
2014-2-10,36.8,32.9,30.5,34.0,30.5,27.4,93,91,88,30.20,30.04,18,5,18,0.08
2014-2-11,35.6,31.4,28.4,32.0,28.4,25.9,92,88,84,30.28,30.17,12,1,12,0.00
2014-2-12,29.1,26.0,23.8,26.7,22.6,17.3,93,87,71,30.29,29.83,28,7,28,0.00
2014-2-13,32.6,28.9,24.7,30.1,26.1,22.7,93,90,72,29.83,29.69,29,8,29,0.03
2014-2-14,55.0,40.1,26.0,34.0,28.9,21.8,92,66,38,29.85,29.60,19,4,20,0.35
2014-2-15,41.5,29.6,24.6,34.6,25.2,18.3,92,84,67,30.09,29.56,36,12,36,0.03
2014-2-16,50.5,36.1,23.4,35.4,28.2,20.1,93,74,49,30.16,30.04,20,4,23,0.04
2014-2-17,48.7,38.6,27.2,35.3,30.6,24.8,92,74,54,30.25,30.06,43,12,43,0.00
2014-2-18,62.6,48.0,34.5,35.5,31.2,23.1,86,56,26,30.24,29.99,23,5,23,0.00
2014-2-19,66.9,53.6,43.5,55.4,45.2,32.6,94,75,49,30.02,29.86,30,4,30,0.23
2014-2-20,71.8,57.4,44.9,56.6,50.3,41.9,90,78,48,30.03,29.78,41,12,41,0.00
2014-2-21,62.7,54.6,40.6,56.3,49.7,33.2,93,84,69,29.89,29.65,42,17,50,0.60
2014-2-22,63.3,48.4,34.1,29.0,23.4,17.5,73,40,20,30.18,30.00,24,6,27,0.00
2014-2-23,67.7,50.8,35.5,35.4,29.8,24.0,71,46,27,30.04,29.84,26,3,26,0.00
2014-2-24,49.0,42.3,33.9,35.9,27.2,15.5,84,57,34,30.11,29.91,32,9,32,0.00
2014-2-25,49.9,39.0,30.9,28.6,23.7,19.5,79,55,38,30.07,29.93,33,7,34,0.00
2014-2-26,38.5,32.5,24.3,24.5,20.3,14.2,72,60,52,29.95,29.81,27,9,27,0.00
2014-2-27,40.7,28.5,19.1,14.2,9.0,2.0,75,47,23,30.02,29.86,30,9,30,0.00
2014-2-28,48.7,34.2,18.3,18.9,15.2,10.8,77,48,28,30.21,30.02,30,8,30,0.00
2014-3-1,60.7,44.2,31.8,35.9,28.2,17.8,77,54,38,30.28,30.12,20,5,21,0.00
2014-3-2,69.5,51.5,35.7,51.7,41.6,30.8,86,70,51,30.19,29.84,22,3,22,0.00
2014-3-3,55.0,39.7,27.0,50.3,37.1,24.6,92,91,84,30.14,29.67,34,6,35,0.24
2014-3-4,45.4,34.9,27.4,32.6,27.5,22.8,93,76,48,30.24,30.10,20,2,20,0.00
2014-3-5,56.7,39.1,29.1,36.8,30.2,23.6,92,73,38,30.17,30.02,12,2,14,0.00
2014-3-6,42.3,37.6,33.0,31.8,25.1,19.2,91,62,42,30.22,30.03,20,8,26,0.04
2014-3-7,54.4,40.6,33.1,44.6,36.4,30.9,94,86,65,30.04,29.91,18,2,19,0.39
2014-3-8,63.2,47.5,32.6,44.3,35.2,30.5,94,67,34,30.10,29.97,22,4,22,0.00
2014-3-9,59.6,50.8,41.9,42.3,34.3,23.3,81,56,28,30.09,30.00,28,10,28,0.00
2014-3-10,64.8,50.3,32.3,45.1,37.0,25.4,81,61,43,30.05,29.83,25,7,25,0.00
2014-3-11,72.8,55.7,37.5,46.4,38.2,34.3,89,57,26,29.86,29.65,19,4,19,0.00
2014-3-12,66.4,49.4,30.3,58.8,43.1,26.7,93,80,52,29.75,29.26,34,10,48,0.14
2014-3-13,38.7,31.0,26.0,27.3,17.8,9.5,89,61,33,30.25,29.76,41,13,41,0.00
2014-3-14,61.4,41.7,20.8,29.6,21.6,11.7,85,48,25,30.30,30.03,35,6,35,0.00
2014-3-15,62.9,54.0,45.2,42.7,34.9,25.9,63,49,34,30.05,29.96,23,6,23,0.00
2014-3-16,47.7,44.3,41.5,44.3,39.0,33.3,93,82,60,29.98,29.64,26,5,26,0.30
2014-3-17,41.3,37.2,33.1,38.6,34.9,31.1,93,91,89,29.87,29.67,22,8,22,0.38
2014-3-18,53.8,40.9,32.8,44.9,37.1,30.7,93,87,70,30.06,29.85,37,8,37,0.00
2014-3-19,61.8,48.6,40.0,48.9,42.6,37.9,92,81,61,30.09,29.89,30,9,31,0.00
2014-3-20,56.0,48.7,40.5,43.6,31.2,20.7,84,55,26,30.06,29.94,25,11,29,0.00
2014-3-21,65.7,48.2,30.2,34.1,27.4,24.0,82,49,24,30.15,29.97,23,7,34,0.00
2014-3-22,66.7,55.1,41.0,45.7,37.2,26.9,69,51,40,30.01,29.91,20,4,24,0.00
2014-3-23,53.7,44.1,36.8,45.9,37.9,26.1,93,79,60,30.13,29.88,30,8,39,0.31
2014-3-24,51.4,38.5,27.6,27.9,22.8,16.6,86,56,28,30.22,30.00,22,4,22,0.00
2014-3-25,38.8,32.7,26.5,32.8,26.8,16.6,93,79,54,30.09,29.84,36,9,41,0.13
2014-3-26,40.9,31.0,22.1,21.5,15.5,10.2,73,54,31,30.31,30.09,33,9,33,0.00
2014-3-27,58.9,42.1,25.8,28.9,22.1,15.7,78,49,27,30.36,30.15,44,12,47,0.00
2014-3-28,59.1,54.3,50.5,52.6,47.3,28.8,90,78,43,30.17,30.00,39,11,42,0.00
2014-3-29,59.9,51.8,36.0,57.2,49.2,33.6,93,91,87,30.03,29.57,35,8,36,0.27
2014-3-30,50.9,39.7,31.8,38.7,32.2,28.8,94,77,49,30.12,29.83,44,16,44,0.13
2014-3-31,73.2,51.4,31.3,35.5,28.8,19.8,86,49,15,30.21,30.03,21,4,21,0.00
2014-4-1,77.2,59.2,41.2,47.3,39.4,31.6,81,51,29,30.11,29.95,28,4,28,0.00
2014-4-2,81.9,62.9,42.6,54.5,46.7,37.9,86,58,30,30.07,29.91,18,2,20,0.00
2014-4-3,82.3,65.6,51.2,59.9,49.6,38.9,92,60,24,30.05,29.76,36,7,36,0.13
2014-4-4,67.8,60.9,55.3,58.8,53.4,44.7,91,77,57,29.82,29.68,41,6,41,0.03
2014-4-5,58.9,50.1,41.1,50.1,39.0,34.6,82,67,46,30.03,29.81,27,9,27,0.00
2014-4-6,61.1,50.3,40.2,43.6,38.4,34.0,86,65,45,30.09,29.93,37,9,37,0.01
2014-4-7,58.1,49.2,43.3,54.3,46.8,41.3,94,91,86,29.99,29.57,44,12,44,1.31
2014-4-8,55.2,48.0,44.3,52.5,41.7,38.0,92,79,65,29.74,29.61,26,8,27,0.00
2014-4-9,59.4,49.7,41.9,44.2,38.2,30.5,90,67,38,30.10,29.74,27,7,27,0.00
2014-4-10,72.8,53.6,31.8,43.7,37.1,28.8,91,58,32,30.25,30.05,28,6,28,0.00
2014-4-11,77.1,60.6,46.0,48.7,41.9,36.3,78,52,24,30.15,29.97,22,4,22,0.00
2014-4-12,79.0,63.8,48.7,54.4,46.3,41.6,81,56,29,30.15,29.99,28,6,28,0.00
2014-4-13,79.7,67.7,56.3,58.2,53.0,46.8,80,60,43,30.05,29.90,41,11,41,0.00
2014-4-14,66.5,62.5,59.4,61.3,56.2,52.8,90,80,69,29.92,29.68,37,14,38,0.03
2014-4-15,60.8,45.2,32.3,57.2,42.1,24.8,93,89,74,30.04,29.54,40,11,43,0.32
2014-4-16,59.2,41.5,26.8,33.1,25.2,20.7,80,56,25,30.35,30.04,33,9,33,0.01
2014-4-17,64.1,48.5,32.4,36.5,30.0,25.3,78,51,28,30.44,30.29,33,10,33,0.00
2014-4-18,53.3,47.0,39.7,43.9,36.6,29.5,91,68,52,30.36,30.16,17,2,17,0.01
2014-4-19,56.8,49.0,45.0,50.9,45.6,42.8,94,88,65,30.20,30.07,20,2,20,0.30
2014-4-20,73.2,55.5,40.5,50.9,42.8,32.3,95,67,34,30.26,30.10,18,4,18,0.01
2014-4-21,75.3,59.1,41.1,51.1,43.3,34.9,82,58,36,30.14,29.89,19,3,20,0.00
2014-4-22,66.6,58.8,49.3,59.5,52.5,44.8,89,80,62,29.89,29.70,18,4,18,0.02
2014-4-23,65.5,56.7,46.9,56.1,39.2,31.2,89,54,33,29.96,29.74,21,8,21,0.00
2014-4-24,74.5,57.6,38.9,44.2,38.1,32.4,82,51,31,30.05,29.86,30,10,32,0.00
2014-4-25,73.3,61.3,54.2,60.5,51.7,40.1,84,71,47,29.88,29.66,29,10,29,0.01
2014-4-26,79.8,62.1,44.9,52.3,43.6,36.1,91,57,23,29.99,29.87,16,4,18,0.00
2014-4-27,84.4,66.2,45.0,56.9,46.7,38.2,85,53,20,29.98,29.79,33,6,33,0.00
2014-4-28,81.3,69.4,59.6,62.5,59.3,56.6,92,72,47,29.87,29.67,37,10,37,0.02
2014-4-29,74.8,66.9,61.6,64.0,61.0,59.3,93,82,67,29.80,29.63,44,16,44,0.46
2014-4-30,73.0,64.8,57.1,61.5,58.7,53.5,90,81,63,29.82,29.70,44,17,49,0.00
2014-5-1,63.2,56.5,50.4,53.8,48.7,40.4,92,76,56,29.88,29.79,27,8,27,0.00
2014-5-2,66.3,54.8,43.0,45.8,40.8,36.4,85,61,40,29.93,29.80,18,4,18,0.00
2014-5-3,70.9,58.2,44.2,47.6,43.5,39.9,85,60,39,29.94,29.85,21,5,28,0.00
2014-5-4,80.6,67.2,52.0,54.0,47.3,41.3,72,50,33,29.99,29.85,30,5,30,0.00
2014-5-5,85.8,71.9,58.6,58.7,51.3,45.9,72,50,29,29.91,29.74,23,4,23,0.00
2014-5-6,83.7,70.3,53.9,57.4,50.0,39.1,80,51,30,29.89,29.79,20,4,20,0.00
2014-5-7,86.7,69.6,50.1,57.4,50.7,42.3,83,54,28,30.02,29.89,27,6,27,0.00
2014-5-8,89.2,71.1,53.3,60.5,54.2,47.1,88,59,26,30.12,29.98,19,3,20,0.00
2014-5-9,76.8,65.3,57.0,64.0,58.5,53.4,92,79,53,30.05,29.96,23,3,24,0.19
2014-5-10,73.2,63.1,58.2,63.8,59.3,56.5,95,88,65,30.05,29.94,24,2,26,0.01
2014-5-11,85.0,67.7,50.8,65.9,57.9,48.8,95,74,35,30.11,29.99,22,3,22,0.00
2014-5-12,89.0,72.3,58.1,66.9,62.3,55.8,92,73,42,30.11,30.01,19,2,19,0.00
2014-5-13,88.5,70.2,60.2,68.8,62.9,57.9,94,80,41,30.08,29.96,29,3,29,0.17
2014-5-14,82.3,69.8,57.3,68.4,60.6,55.3,95,75,49,30.06,29.88,33,10,34,0.15
2014-5-15,66.7,58.3,47.8,64.6,56.1,45.6,93,92,89,29.95,29.77,41,9,41,1.85
2014-5-16,60.4,49.4,40.5,48.7,44.0,38.3,92,83,56,30.08,29.92,23,5,28,0.02
2014-5-17,59.4,47.7,35.4,48.9,42.3,33.8,95,83,59,30.19,30.06,17,2,18,0.00
2014-5-18,66.1,53.0,43.6,53.4,46.6,41.4,93,80,58,30.20,30.11,17,2,17,0.00
2014-5-19,72.2,56.3,39.0,53.6,46.8,36.9,93,73,43,30.27,30.13,18,3,19,0.00
2014-5-20,78.4,63.5,48.0,62.7,55.3,45.4,92,76,56,30.22,30.01,13,1,14,0.00
2014-5-21,80.6,67.8,52.4,64.7,58.3,50.3,94,74,52,30.08,29.93,26,3,26,0.00
2014-5-22,80.3,69.2,58.7,67.9,62.6,56.1,92,80,61,30.03,29.88,27,4,29,0.10
2014-5-23,77.0,67.7,58.3,65.5,61.9,56.0,94,82,65,30.06,29.93,53,4,55,0.35
2014-5-24,76.7,64.9,51.4,58.4,51.5,43.1,92,65,34,30.09,29.98,18,2,19,0.00
2014-5-25,76.7,63.5,48.1,64.2,56.0,45.3,91,77,59,30.12,30.05,14,1,14,0.00
2014-5-26,81.7,68.9,58.0,67.3,62.1,55.6,94,80,59,30.14,30.01,13,1,13,0.00
2014-5-27,79.8,67.2,59.1,70.4,63.3,57.1,94,88,65,30.07,29.94,42,1,42,0.80
2014-5-28,82.8,69.7,59.8,69.9,63.2,58.1,95,81,56,30.01,29.90,15,1,15,0.02
2014-5-29,85.2,70.4,58.6,70.0,63.8,56.6,93,81,53,30.00,29.91,18,1,18,0.01
2014-5-30,83.8,70.1,62.7,71.7,65.0,60.3,93,85,60,30.01,29.93,18,3,18,0.05
2014-5-31,81.7,69.0,61.3,70.6,63.7,59.3,95,84,65,30.08,29.97,26,5,27,0.01
2014-6-1,77.3,68.5,61.3,64.2,61.4,57.7,89,78,61,30.18,30.08,28,9,28,0.00
2014-6-2,81.0,67.4,55.0,63.7,58.3,52.6,92,74,54,30.18,30.02,22,5,22,0.00
2014-6-3,77.8,67.0,56.5,68.2,61.7,54.1,92,84,71,30.07,29.93,13,2,20,0.00
2014-6-4,87.8,71.6,57.0,70.6,63.4,54.9,95,77,48,29.95,29.72,12,1,13,0.00
2014-6-5,77.8,70.0,64.1,70.9,65.7,61.8,93,86,76,29.81,29.69,20,2,21,0.02
2014-6-6,79.5,70.8,62.8,68.2,64.1,60.8,94,81,61,29.87,29.79,18,2,18,0.00
2014-6-7,86.6,71.9,59.5,70.0,64.2,57.2,93,78,54,29.92,29.82,19,4,19,0.00
2014-6-8,83.8,73.3,65.5,70.1,65.5,60.8,92,78,58,29.87,29.76,23,5,23,0.00
2014-6-9,83.0,69.6,58.7,69.0,63.2,56.1,92,81,54,29.85,29.78,16,2,17,0.02
2014-6-10,89.5,73.2,61.6,70.7,64.7,59.6,94,77,49,29.90,29.77,31,4,31,0.31
2014-6-11,82.4,71.7,62.8,69.7,63.9,60.4,93,78,52,29.84,29.70,38,9,38,0.02
2014-6-12,79.8,68.6,62.1,68.9,63.6,59.7,93,85,62,29.82,29.74,16,2,16,0.06
2014-6-13,79.7,66.8,60.8,68.2,62.5,58.8,95,87,63,29.88,29.77,22,2,22,0.04
2014-6-14,82.0,69.6,59.1,67.6,60.7,56.1,95,76,44,29.99,29.88,19,1,19,0.01
2014-6-15,88.5,72.3,57.8,69.3,63.1,54.9,92,75,50,30.09,29.99,24,3,24,0.00
2014-6-16,87.5,74.8,66.8,72.0,67.8,64.4,93,80,55,30.12,30.03,19,1,19,0.00
2014-6-17,88.5,75.3,62.7,71.8,66.3,60.3,93,76,49,30.13,30.00,13,1,13,0.00
2014-6-18,88.7,74.0,63.0,73.0,66.7,60.6,93,79,54,30.07,29.99,26,2,26,0.00
2014-6-19,90.0,75.5,63.2,73.0,66.9,61.1,93,77,51,30.08,29.97,23,1,23,0.00
2014-6-20,88.7,73.4,60.8,72.7,65.7,58.8,96,78,50,30.03,29.87,21,2,21,0.00
2014-6-21,84.2,72.7,64.7,71.6,66.4,62.3,93,82,57,29.90,29.78,20,2,22,0.01
2014-6-22,87.5,74.5,62.1,70.0,64.5,59.8,94,73,46,29.87,29.77,17,2,18,0.00
2014-6-23,87.7,73.6,62.7,70.9,65.9,59.9,92,78,53,29.99,29.86,25,4,25,0.05
2014-6-24,83.6,73.0,64.5,71.8,67.2,62.3,94,83,63,30.00,29.88,25,5,25,0.05
2014-6-25,81.9,72.0,65.2,70.8,66.6,63.1,94,84,63,29.95,29.87,20,2,20,0.01
2014-6-26,84.5,73.8,65.3,70.7,66.1,63.2,95,79,53,29.98,29.85,17,2,17,0.36
2014-6-27,83.4,73.4,65.4,71.0,66.4,62.7,92,80,55,30.02,29.90,19,1,19,0.00
2014-6-28,85.0,73.6,67.4,71.3,67.8,64.7,93,83,59,30.11,30.01,25,4,25,0.08
2014-6-29,84.5,71.6,66.2,73.2,66.9,64.1,95,86,59,30.14,30.00,26,2,26,0.82
2014-6-30,81.9,71.2,64.9,72.7,67.2,63.1,95,88,68,30.05,29.89,12,0,12,0.01
2014-7-1,91.0,76.2,65.7,73.5,68.9,63.9,95,80,51,29.93,29.78,15,1,15,0.01
2014-7-2,91.8,75.6,67.2,74.0,68.4,64.0,94,80,51,29.90,29.82,20,1,22,0.00
2014-7-3,84.2,72.5,63.5,72.3,65.1,57.1,94,79,62,29.96,29.85,24,4,27,0.00
2014-7-4,78.2,67.9,57.1,62.3,56.8,52.9,90,69,45,30.15,29.96,21,4,21,0.00
2014-7-5,84.8,68.0,51.3,61.5,56.0,48.8,92,68,39,30.23,30.10,22,3,22,0.00
2014-7-6,85.0,71.0,57.2,63.6,59.6,54.3,92,70,41,30.12,29.95,16,2,16,0.00
2014-7-7,89.5,74.1,58.6,70.4,63.3,56.3,92,71,43,30.00,29.83,17,2,17,0.00
2014-7-8,88.3,71.4,61.1,69.5,64.3,58.8,93,80,45,29.96,29.83,21,1,22,0.34
2014-7-9,79.8,69.4,64.1,71.2,65.9,61.9,95,89,71,29.99,29.88,25,1,27,1.21
2014-7-10,83.0,71.9,64.1,73.1,66.8,62.2,95,85,64,30.04,29.94,14,1,14,0.02
2014-7-11,90.2,74.2,63.0,72.1,65.9,60.6,94,77,45,30.12,30.02,14,2,14,0.00
2014-7-12,89.5,74.8,65.6,73.4,67.3,63.2,94,79,48,30.12,30.03,19,2,19,0.00
2014-7-13,88.8,75.8,66.4,74.1,69.0,64.0,93,80,58,30.06,29.92,13,1,14,0.00
2014-7-14,90.4,75.1,66.4,73.9,68.6,64.0,93,82,56,29.95,29.78,19,1,19,0.07
2014-7-15,78.2,69.4,64.0,70.4,66.0,61.8,93,89,73,29.85,29.71,24,2,25,0.07
2014-7-16,76.0,65.9,56.3,62.3,57.6,54.3,94,77,51,29.92,29.79,16,2,17,0.01
2014-7-17,81.8,67.4,55.0,63.5,58.2,52.6,92,74,50,30.02,29.92,19,3,20,0.00
2014-7-18,68.1,65.2,63.2,65.7,62.5,59.8,94,91,80,30.09,30.01,15,2,15,0.85
2014-7-19,67.2,64.2,62.2,64.7,61.9,59.5,94,93,87,30.06,30.00,19,6,20,0.23
2014-7-20,82.8,68.9,61.8,71.2,64.2,59.2,92,86,67,30.07,29.94,22,3,22,0.00
2014-7-21,81.6,70.3,62.9,72.4,66.3,60.8,94,87,72,30.06,29.97,26,2,28,0.00
2014-7-22,85.6,73.9,63.5,72.9,67.6,61.4,94,82,63,30.09,29.98,19,3,19,0.00
2014-7-23,83.8,72.0,65.9,74.6,68.2,63.8,94,88,69,30.03,29.88,16,1,16,0.03
2014-7-24,82.0,71.2,65.4,73.7,67.6,63.3,95,89,72,29.91,29.79,22,2,22,0.18
2014-7-25,85.1,72.4,63.1,71.8,65.8,61.0,94,81,53,29.99,29.87,16,2,16,0.00
2014-7-26,88.6,73.9,64.4,69.8,65.4,61.9,94,77,48,29.97,29.86,18,2,18,0.00
2014-7-27,89.8,74.3,65.7,75.2,68.3,63.4,93,83,60,29.93,29.73,38,2,38,0.14
2014-7-28,76.8,69.5,63.8,69.2,63.5,58.8,95,82,63,29.90,29.76,25,5,25,0.68
2014-7-29,74.4,65.3,57.0,62.3,57.8,52.3,92,78,60,30.00,29.85,22,3,22,0.00
2014-7-30,76.8,62.8,49.7,62.6,55.1,47.8,94,78,53,30.05,29.99,13,1,13,0.00
2014-7-31,70.4,63.1,55.4,65.0,59.2,53.1,93,87,80,30.08,30.03,19,2,19,0.00
2014-8-1,79.8,67.3,61.2,68.7,62.3,59.1,94,85,66,30.07,29.96,19,2,19,0.03
2014-8-2,77.5,67.9,62.0,69.6,63.7,59.3,92,87,72,30.05,29.97,20,2,21,0.02
2014-8-3,82.2,69.4,62.4,69.3,63.8,60.3,94,84,55,30.06,29.97,12,1,12,0.00
2014-8-18,81.3,72.3,66.0,73.2,67.8,64.2,95,86,67,29.90,29.74,8,2,0,0.04
2014-8-19,82.4,73.3,66.9,71.8,67.8,64.7,94,84,66,29.84,29.75,8,2,0,0.00
2014-8-20,89.3,71.6,61.6,73.7,66.0,59.6,94,84,54,30.05,29.84,14,2,0,0.04
2014-8-21,86.3,72.8,61.7,74.2,67.0,60.0,95,83,63,30.09,30.00,10,2,0,0.00
2014-8-22,89.2,76.4,65.9,74.4,69.2,63.8,94,80,57,30.03,29.88,9,2,0,0.00
2014-8-23,88.4,76.7,67.4,74.6,70.0,65.3,94,81,60,29.93,29.81,9,3,0,0.00
2014-8-24,78.4,69.6,66.6,70.8,66.5,64.2,93,90,77,29.99,29.84,12,1,13,0.00
2014-8-25,86.1,72.0,64.5,68.0,63.4,60.2,91,76,52,30.04,29.93,23,4,23,0.00
2014-8-26,84.1,70.6,56.7,67.2,61.6,54.3,93,75,54,30.09,29.97,17,2,17,0.00
2014-8-27,86.6,71.0,57.1,66.5,61.6,55.1,93,75,48,30.05,29.93,17,1,18,0.00
2014-8-28,91.8,73.1,57.6,71.4,64.3,55.3,92,76,48,30.00,29.88,10,1,15,0.00
2014-8-29,90.8,76.4,65.0,71.6,67.1,62.8,94,76,45,30.04,29.94,29,4,29,0.00
2014-8-30,89.2,75.9,64.1,71.4,67.5,61.6,93,77,46,30.08,29.97,26,6,26,0.04
2014-8-31,87.7,75.2,67.8,74.4,69.2,65.8,94,83,53,30.06,29.96,12,1,12,0.30
2014-9-1,85.5,74.5,66.9,73.9,68.6,64.8,94,83,57,30.04,29.95,18,1,18,0.02
2014-9-2,86.7,74.9,63.2,73.4,67.8,61.1,94,80,58,30.03,29.86,27,2,30,0.34
2014-9-3,88.1,73.2,64.1,71.7,66.7,62.3,94,82,53,30.01,29.90,22,2,25,0.01
2014-9-4,84.0,72.0,67.1,73.9,68.4,65.0,94,89,67,30.10,30.00,15,2,19,0.20
2014-9-5,88.9,71.4,67.3,73.7,67.6,65.2,95,89,57,30.14,29.99,9,0,10,0.14
2014-9-6,85.5,71.4,66.2,73.9,67.5,64.7,95,88,61,30.03,29.87,15,1,19,0.28
2014-9-7,84.4,71.2,65.1,72.4,66.7,63.3,95,87,60,29.99,29.88,14,1,15,0.02
2014-9-8,79.4,69.9,65.7,70.4,65.8,62.6,94,87,70,30.03,29.94,15,4,20,0.10
2014-9-9,85.0,71.3,64.4,72.3,65.6,62.0,93,83,59,30.06,29.93,24,4,29,0.00
2014-9-10,81.5,71.7,64.8,68.5,65.7,62.4,92,82,64,30.02,29.91,21,8,23,0.00
2014-9-11,83.3,71.2,63.1,74.0,66.8,61.0,93,86,69,29.98,29.88,24,1,24,0.05
2014-9-12,84.0,72.8,66.0,72.5,68.1,64.2,95,86,65,30.00,29.89,13,1,13,0.02
2014-9-13,73.9,68.7,60.6,68.4,65.7,58.3,94,90,81,30.10,29.93,15,3,19,0.01
2014-9-14,68.1,64.3,60.5,63.3,60.6,58.2,93,88,79,30.16,30.08,23,4,23,0.00
2014-9-15,77.0,67.6,61.2,67.7,63.4,59.1,93,87,71,30.15,30.02,14,2,14,0.15
2014-9-16,78.3,68.7,63.3,69.7,64.9,60.6,95,88,72,30.05,29.88,15,2,17,0.00
2014-9-17,79.8,66.1,59.4,66.1,60.6,56.4,94,83,60,29.93,29.81,16,1,17,0.00
2014-9-18,75.7,64.6,56.4,61.9,57.4,54.5,95,79,52,29.98,29.87,10,1,12,0.00
2014-9-19,79.2,65.4,55.7,66.1,59.6,53.6,94,83,60,30.12,29.98,28,6,30,0.00
2014-9-20,81.9,66.8,56.1,62.9,57.9,53.8,93,76,47,30.14,29.94,19,2,19,0.00
2014-9-21,83.4,66.1,52.5,67.6,60.2,50.5,95,83,57,29.99,29.79,17,2,18,0.00
2014-9-22,71.6,61.3,51.6,63.7,53.0,48.8,90,75,52,30.12,29.86,19,4,22,0.00
2014-9-23,73.5,57.2,43.8,57.7,50.8,41.9,95,81,56,30.24,30.11,24,4,24,0.00
2014-9-24,77.3,60.7,47.1,57.9,50.1,40.8,94,72,30,30.29,30.18,14,2,14,0.00
2014-9-25,78.6,66.5,59.7,65.0,60.6,56.8,92,82,61,30.20,30.07,14,2,14,0.00
2014-9-26,77.8,65.9,58.0,65.2,60.4,56.0,93,83,63,30.14,30.05,17,3,19,0.00
2014-9-27,79.5,65.7,57.6,62.5,58.9,55.3,93,80,55,30.15,30.05,18,3,19,0.00
2014-9-28,75.5,63.4,52.9,61.5,57.3,50.9,93,82,59,30.14,30.01,9,1,10,0.00
2014-9-29,67.4,63.6,59.0,64.1,60.8,57.0,94,91,86,30.01,29.89,10,1,11,0.01
2014-9-30,79.8,65.3,57.8,64.7,58.0,53.9,95,80,44,29.93,29.81,19,1,19,0.01
2014-10-1,80.3,63.6,49.6,61.4,53.8,47.8,95,74,40,30.00,29.88,13,1,14,0.00
2014-10-2,84.6,65.3,50.3,62.0,56.1,48.1,93,75,41,30.07,29.94,18,2,21,0.00
2014-10-3,76.7,66.3,60.0,68.6,62.0,56.0,92,86,75,29.96,29.68,27,7,27,0.03
2014-10-4,60.2,50.2,43.0,55.9,40.2,33.3,92,70,46,29.90,29.72,28,6,29,0.04
2014-10-5,62.3,47.9,32.0,41.7,34.9,29.3,93,65,29,30.01,29.88,18,3,18,0.00
2014-10-6,69.0,54.7,43.1,59.2,48.9,40.3,93,82,54,30.01,29.88,29,4,29,0.21
2014-10-7,67.3,58.7,53.1,61.3,55.6,51.2,95,90,79,30.06,29.90,17,5,23,0.25
2014-10-8,75.3,64.6,55.8,65.5,58.2,52.6,95,81,57,30.05,29.92,17,3,20,0.04
2014-10-9,79.6,61.3,50.1,62.5,55.5,48.1,94,83,46,30.11,30.01,18,1,18,0.19
2014-10-10,80.8,65.7,56.4,68.7,61.2,54.7,95,86,54,30.05,29.89,23,2,23,0.01
2014-10-11,74.8,64.9,60.6,67.0,61.9,58.6,94,90,74,29.99,29.86,21,2,21,0.04
2014-10-12,67.9,61.3,56.6,62.4,58.7,54.0,94,91,81,30.11,29.95,23,6,27,0.22
2014-10-13,74.5,63.9,56.1,64.7,59.4,53.8,95,86,68,30.13,29.97,38,11,40,0.00
2014-10-14,69.2,66.0,56.7,65.1,62.3,54.4,93,88,78,29.97,29.61,55,18,55,0.92
2014-10-15,64.6,54.1,48.8,55.7,49.9,46.8,95,87,58,29.80,29.73,18,1,21,0.08
2014-10-16,57.0,52.5,49.7,52.9,49.7,48.0,95,90,82,29.89,29.72,19,3,19,0.05
2014-10-17,75.7,57.6,44.3,55.2,49.5,42.6,95,77,46,29.93,29.77,14,1,19,0.01
2014-10-18,64.0,57.7,48.4,56.7,50.1,44.1,87,76,64,29.96,29.75,28,8,28,0.00
2014-10-19,64.1,52.2,46.0,46.9,43.7,41.4,87,74,52,30.15,29.96,25,4,25,0.00
2014-10-20,67.0,51.8,39.6,53.4,45.7,37.5,98,81,49,30.08,29.92,17,1,18,0.01
2014-10-21,63.4,52.0,42.2,54.2,45.1,36.8,95,79,57,30.01,29.89,28,5,28,0.01
2014-10-22,56.9,47.8,42.0,43.8,40.0,36.8,86,75,60,30.15,29.99,28,6,28,0.00
2014-10-23,59.9,48.4,39.4,46.0,41.2,36.7,92,77,56,30.16,30.01,20,4,20,0.00
2014-10-24,67.8,49.1,35.9,47.6,40.1,33.9,94,74,38,30.08,29.97,17,2,17,0.00
2014-10-25,68.0,52.4,35.9,50.0,43.2,33.8,93,73,37,30.07,29.95,24,3,24,0.00
2014-10-26,72.7,60.4,48.4,56.7,49.6,45.8,92,70,44,29.97,29.89,21,5,21,0.00
2014-10-27,81.5,60.6,42.7,57.2,48.8,39.9,92,69,35,30.08,29.96,19,3,19,0.00
2014-10-28,79.3,61.5,46.3,60.6,53.0,43.9,93,75,42,30.07,29.96,15,2,15,0.00
2014-10-29,58.7,51.7,40.9,55.3,48.4,38.6,93,88,78,30.04,29.94,23,4,27,0.03
2014-10-30,60.9,45.9,32.8,44.7,37.7,30.9,95,76,39,30.08,29.95,21,3,21,0.00
2014-10-31,54.9,41.1,31.6,43.3,37.0,29.5,98,86,62,29.97,29.81,26,4,27,0.04
2014-11-1,34.0,32.2,31.1,31.8,30.5,29.3,94,93,91,30.23,29.80,32,13,32,0.06
2014-11-2,42.2,34.2,29.7,32.1,28.3,25.9,92,79,61,30.43,30.22,28,9,28,0.08
2014-11-3,65.3,41.9,23.8,35.4,26.6,14.0,93,63,16,30.50,30.35,10,1,10,0.00
2014-11-4,68.5,49.6,32.6,40.8,34.7,28.9,87,60,32,30.36,30.16,15,1,15,0.00
2014-11-5,65.4,53.0,41.6,50.5,43.2,36.6,86,70,50,30.24,30.07,18,2,18,0.00
2014-11-6,66.5,54.3,43.5,55.8,44.9,32.0,94,73,38,30.07,29.74,37,8,39,0.03
2014-11-7,45.9,39.7,32.9,37.7,34.7,30.5,91,82,68,30.12,29.92,31,8,31,0.00
2014-11-8,59.6,42.9,28.1,40.7,34.6,26.1,93,75,47,30.06,29.91,21,3,21,0.00
2014-11-9,60.9,46.6,32.7,42.7,37.5,30.3,92,72,38,30.01,29.89,15,2,15,0.00
2014-11-10,67.3,48.4,32.0,45.8,38.6,29.4,92,71,42,30.08,29.98,31,6,32,0.00
2014-11-11,74.2,51.3,33.5,44.8,37.1,30.9,92,64,21,30.05,29.88,15,3,18,0.00
2014-11-12,58.7,48.3,42.0,52.3,43.8,36.6,92,85,66,30.07,29.93,26,8,26,0.00
2014-11-13,42.4,36.6,28.4,40.2,34.2,26.4,93,91,87,30.14,30.02,25,10,26,0.00
2014-11-14,30.0,25.6,19.4,26.3,19.4,15.2,92,78,64,30.36,30.13,23,9,26,0.00
2014-11-15,46.9,29.6,14.3,22.9,17.4,11.9,91,64,33,30.46,30.29,24,5,27,0.00
2014-11-16,46.5,41.3,34.9,41.5,27.5,18.5,86,58,47,30.32,29.94,24,5,24,0.00
2014-11-17,50.7,39.7,22.3,48.7,37.4,19.1,94,91,86,30.00,29.61,34,12,35,0.45
2014-11-18,25.7,20.2,16.4,18.9,12.7,7.7,96,73,56,30.36,30.00,29,8,30,0.00
2014-11-19,44.0,26.7,12.0,20.0,14.1,8.2,87,61,35,30.41,30.19,26,4,26,0.00
2014-11-20,50.1,38.0,26.3,34.4,26.4,18.8,85,64,41,30.23,30.08,30,5,30,0.00
2014-11-21,48.3,38.1,29.1,25.5,17.3,7.0,73,46,21,30.47,30.20,19,6,19,0.00
2014-11-22,58.4,41.6,26.9,31.8,23.2,13.2,70,49,32,30.50,30.25,25,7,26,0.00
2014-11-23,55.5,46.9,40.1,52.6,41.8,25.0,94,83,50,30.25,29.60,38,10,46,0.78
2014-11-24,71.5,56.1,51.7,53.0,50.3,39.4,91,82,35,29.85,29.62,28,8,32,0.00
2014-11-25,54.7,47.3,41.7,39.2,31.4,26.1,72,55,35,30.04,29.87,17,4,22,0.00
2014-11-26,47.5,40.7,36.9,38.8,34.7,30.7,93,80,57,29.99,29.93,12,4,17,0.32
2014-11-27,38.6,32.7,27.0,33.0,29.4,21.0,92,88,76,30.32,29.93,27,9,27,0.05
2014-11-28,40.9,30.5,25.0,27.1,22.2,19.5,82,72,52,30.41,30.25,19,4,19,0.01
2014-11-29,60.2,39.4,24.9,41.8,29.3,20.7,89,69,40,30.28,30.15,27,3,27,0.00
2014-11-30,67.2,48.3,31.3,48.6,39.6,28.8,92,74,46,30.28,30.15,16,2,16,0.00
2014-12-1,67.5,52.1,39.0,53.3,46.1,36.3,92,81,58,30.35,30.22,11,1,11,0.00
2014-12-2,61.7,52.9,46.9,54.1,49.1,44.7,93,87,75,30.26,30.16,27,6,27,0.00
2014-12-3,64.3,53.3,48.5,54.4,48.8,46.2,94,85,59,30.21,30.13,26,6,30,0.00
2014-12-4,59.7,51.0,44.1,51.1,45.9,42.2,94,83,71,30.29,30.18,16,4,17,0.00
2014-12-5,52.6,48.8,44.4,49.7,45.9,42.1,93,90,80,30.35,30.24,22,6,22,0.03
2014-12-6,54.7,49.2,41.4,52.9,47.1,39.3,94,93,91,30.24,29.99,31,9,31,0.42
2014-12-7,48.6,40.2,34.6,40.5,35.3,26.7,98,83,64,30.39,30.23,23,6,23,0.00
2014-12-8,40.4,36.4,31.8,34.1,27.5,19.2,92,71,54,30.37,30.16,26,6,26,0.00
2014-12-9,38.9,35.5,31.3,36.2,33.3,29.3,94,92,88,30.16,30.01,23,7,23,0.03
2014-12-10,35.9,33.9,31.3,32.3,30.0,25.1,91,86,78,30.13,30.08,28,11,28,0.00
2014-12-11,38.4,31.8,28.1,27.8,24.3,21.5,82,74,60,30.25,30.07,28,9,28,0.00
2014-12-12,48.3,34.8,23.7,25.3,17.5,9.4,84,55,21,30.37,30.25,18,5,19,0.00
2014-12-13,51.3,37.3,27.2,32.4,25.2,17.6,86,62,41,30.27,30.14,18,6,20,0.00
2014-12-14,43.0,32.5,26.8,35.2,29.0,24.8,93,87,70,30.16,30.08,23,6,24,0.00
2014-12-15,60.5,38.2,21.1,38.8,29.5,19.0,94,75,40,30.15,30.01,23,3,23,0.00
2014-12-16,56.2,46.5,41.8,50.9,41.6,35.8,93,83,71,30.07,29.83,30,9,30,0.07
2014-12-17,45.2,40.3,35.9,38.3,35.9,32.3,92,84,73,30.18,30.06,22,9,22,0.00
2014-12-18,49.5,38.6,32.4,33.7,29.6,16.7,90,73,27,30.19,30.05,18,4,25,0.00
2014-12-19,48.5,40.1,34.7,34.6,29.0,25.7,75,65,54,30.17,30.07,16,5,16,0.00
2014-12-20,47.6,40.5,35.5,40.9,35.6,26.9,90,82,68,30.19,30.11,19,2,19,0.00
2014-12-21,51.2,42.6,38.0,41.0,38.1,35.6,92,84,67,30.22,30.08,20,4,20,0.00
2014-12-22,49.9,42.5,39.9,43.8,39.7,37.6,98,90,79,30.10,29.90,25,8,25,0.02
2014-12-23,51.9,45.9,39.9,50.1,44.0,37.9,94,93,91,29.99,29.79,36,8,36,0.40
2014-12-24,56.4,50.6,42.1,53.7,48.6,38.2,95,93,87,29.81,29.52,34,9,34,0.61
2014-12-25,45.4,39.3,31.0,38.3,33.5,28.4,91,80,67,30.25,29.70,29,8,29,0.00
2014-12-26,57.4,37.7,24.4,36.8,29.3,22.4,94,75,34,30.37,30.22,9,1,14,0.01
2014-12-27,56.0,45.0,34.1,40.0,34.1,28.3,85,67,44,30.32,30.11,12,1,12,0.00
2014-12-28,55.9,49.7,45.5,50.8,43.0,34.2,93,78,57,30.13,29.97,24,4,24,0.01
2014-12-29,53.9,48.5,43.1,51.6,46.7,41.1,95,93,89,30.07,29.98,18,3,18,0.53
2014-12-30,43.0,38.0,31.2,41.1,35.5,28.1,94,91,80,30.41,30.06,22,7,23,0.01
2014-12-31,38.2,31.0,25.6,29.7,25.8,22.9,91,81,62,30.46,30.36,19,5,21,0.00
2015-1-1,44.4,32.8,21.0,32.1,25.2,19.0,93,75,48,30.37,30.25,14,2,15,0.00
2015-1-2,48.7,43.2,37.4,44.6,38.1,30.9,93,82,67,30.31,30.24,13,2,14,0.00